Погода в Эр-Рамади

Ирак     33°25′20″N   43°18′16″E
темп.,
°C
ветер,
м/с
пор.,
м/с
влажн.,
%
обл.,
%
осадки,
мм/ч
давл.,
гПа
погр.,
м
25 января, пн
пн2500:00+8ссз11347 0.0 102422
03:00+8сз23323 0.0 102322
06:00+7ссз233867 0.0 102322
09:00+11ссз333433 0.0 1024105
12:00+15с22270 0.0 1024571
15:00+16с21230 0.0 1021715
18:00+13ссв34300 0.0 102237
21:00+11с12284 0.0 102223
26 января, вт
вт2600:00+11ссз2225100 0.0 102222
03:00+11ссз3426100 0.0 102222
06:00+9ссз343319 0.0 102323
09:00+12ссз34309 0.0 1024138
12:00+16ссз33240 0.0 1023507
15:00+17с44210 0.0 1021603
18:00+14с332713 0.0 102227
21:00+14с342851 0.0 102225
27 января, ср
ср2700:00+12с2337100 0.0 102223
03:00+11с234874 0.0 102122
06:00+10с2349100 0.0 102122
09:00+13св124298 0.0 102153
12:00+17вюв112599 0.0 1021479
15:00+19вюв331996 0.0 1018754
18:00+16вюв3424100 0.0 101738
21:00+15вюв3427100 0.0 101747
28 января, чт
чт2800:00+14юв4534100 0.0 101677
03:00+13вюв453550 0.0 101466
06:00+14вюв483395 0.0 1013154
09:00+16юв8152784 0.0 1012627
12:00+19ю8102993 0.0 1010783
15:00+20юз662756 0.0 1008856
18:00+16зюз22330 0.0 101023
21:00+16з34330 0.0 101323
29 января, пт
пт2900:00+13ссз12430 0.0 101423
03:00+13с34430 0.0 101323
06:00+12с345028 0.0 101323
09:00+14зсз454657 0.0 1014192
12:00+17сз674199 0.0 1012862
15:00+17зюз893558 0.0 10111192
18:00+16зюз510310 0.0 1012229
21:00+13зюз510400 0.0 1015225